Time,TemperatureF,DewpointF,PressureIn,WindDirection,WindDirectionDegrees,WindSpeedMPH,WindSpeedGustMPH,Humidity,HourlyPrecipIn,Conditions,Clouds,dailyrainin,SoftwareType,DateUTC
2013-07-22 00:01:00,69.5,10.5,29.99,North,0,0.0,0.0,1,0.00,,,0.00,WUHU216HW,2013-07-22 04:01:00,
2013-07-22 00:06:00,69.3,10.5,29.99,North,0,0.0,0.0,1,0.00,,,0.00,WUHU216HW,2013-07-22 04:06:00,
2013-07-22 00:11:00,69.1,10.3,29.99,North,0,0.0,0.0,1,0.00,,,0.00,WUHU216HW,2013-07-22 04:11:00,
2013-07-22 00:16:00,68.8,10.1,29.99,North,0,0.0,0.0,1,0.00,,,0.00,WUHU216HW,2013-07-22 04:16:00,
2013-07-22 00:21:00,68.8,10.1,29.99,North,0,0.0,0.0,1,0.00,,,0.00,WUHU216HW,2013-07-22 04:21:00,
2013-07-22 00:26:00,68.8,10.1,29.99,North,0,0.0,0.0,1,0.00,,,0.00,WUHU216HW,2013-07-22 04:26:00,
2013-07-22 00:31:00,68.8,10.1,29.99,North,0,0.0,0.0,1,0.00,,,0.00,WUHU216HW,2013-07-22 04:31:00,
2013-07-22 00:36:00,68.8,10.1,29.99,North,0,0.0,0.0,1,0.00,,,0.00,WUHU216HW,2013-07-22 04:36:00,
2013-07-22 00:41:00,68.9,10.2,29.99,North,0,0.0,0.0,1,0.00,,,0.00,WUHU216HW,2013-07-22 04:41:00,
2013-07-22 00:46:00,68.9,10.2,29.99,North,0,0.0,0.0,1,0.00,,,0.00,WUHU216HW,2013-07-22 04:46:00,
2013-07-22 00:51:00,68.9,10.2,29.99,North,0,0.0,0.0,1,0.00,,,0.00,WUHU216HW,2013-07-22 04:51:00,
2013-07-22 00:56:00,68.9,10.2,29.99,North,0,0.0,0.0,1,0.00,,,0.00,WUHU216HW,2013-07-22 04:56:00,
2013-07-22 01:01:00,68.9,10.2,29.99,North,0,0.0,0.0,1,0.00,,,0.00,WUHU216HW,2013-07-22 05:01:00,
2013-07-22 01:06:00,68.9,10.2,29.99,North,0,0.0,0.0,1,0.00,,,0.00,WUHU216HW,2013-07-22 05:06:00,
2013-07-22 01:11:00,68.9,10.2,29.99,North,0,0.0,0.0,1,0.00,,,0.00,WUHU216HW,2013-07-22 05:11:00,
2013-07-22 01:16:00,68.9,10.2,29.99,North,0,0.0,0.0,1,0.00,,,0.00,WUHU216HW,2013-07-22 05:16:00,
2013-07-22 01:21:00,68.9,10.2,29.99,North,0,0.0,0.0,1,0.00,,,0.00,WUHU216HW,2013-07-22 05:21:00,
2013-07-22 01:26:00,68.8,10.1,29.99,North,0,0.0,0.0,1,0.00,,,0.00,WUHU216HW,2013-07-22 05:26:00,
2013-07-22 01:31:00,68.8,10.1,29.99,North,0,0.0,0.0,1,0.00,,,0.00,WUHU216HW,2013-07-22 05:31:00,
2013-07-22 01:36:00,68.8,10.1,29.99,North,0,0.0,0.0,1,0.00,,,0.00,WUHU216HW,2013-07-22 05:36:00,
2013-07-22 01:41:00,68.6,9.9,29.99,North,0,0.0,0.0,1,0.00,,,0.00,WUHU216HW,2013-07-22 05:41:00,
2013-07-22 01:46:00,68.4,9.8,29.98,North,0,0.0,0.0,1,0.00,,,0.00,WUHU216HW,2013-07-22 05:46:00,
2013-07-22 01:51:00,68.2,9.6,29.98,North,0,0.0,0.0,1,0.00,,,0.00,WUHU216HW,2013-07-22 05:51:00,
2013-07-22 01:56:00,68.0,9.5,29.98,North,0,0.0,0.0,1,0.00,,,0.00,WUHU216HW,2013-07-22 05:56:00,
2013-07-22 02:01:00,68.0,9.5,29.98,North,0,0.0,0.0,1,0.00,,,0.00,WUHU216HW,2013-07-22 06:01:00,
2013-07-22 02:06:00,68.0,9.5,29.98,North,0,0.0,0.0,1,0.00,,,0.00,WUHU216HW,2013-07-22 06:06:00,
2013-07-22 02:11:00,68.0,9.5,29.97,North,0,0.0,0.0,1,0.00,,,0.00,WUHU216HW,2013-07-22 06:11:00,
2013-07-22 02:16:00,68.0,9.5,29.97,North,0,0.0,0.0,1,0.00,,,0.00,WUHU216HW,2013-07-22 06:16:00,
2013-07-22 02:21:00,68.0,9.5,29.97,North,0,0.0,0.0,1,0.00,,,0.00,WUHU216HW,2013-07-22 06:21:00,
2013-07-22 02:26:00,68.0,9.5,29.96,North,0,0.0,0.0,1,0.00,,,0.00,WUHU216HW,2013-07-22 06:26:00,
2013-07-22 02:31:00,68.2,9.6,29.96,North,0,0.0,0.0,1,0.00,,,0.00,WUHU216HW,2013-07-22 06:31:00,
2013-07-22 02:36:00,68.2,9.6,29.96,North,0,0.0,0.0,1,0.00,,,0.00,WUHU216HW,2013-07-22 06:36:00,
2013-07-22 02:41:00,68.0,9.5,29.96,North,0,0.0,0.0,1,0.00,,,0.00,WUHU216HW,2013-07-22 06:41:00,
2013-07-22 02:46:00,68.0,9.5,29.96,North,0,0.0,0.0,1,0.00,,,0.00,WUHU216HW,2013-07-22 06:46:00,
2013-07-22 02:51:00,68.0,9.5,29.96,North,0,0.0,0.0,1,0.00,,,0.00,WUHU216HW,2013-07-22 06:51:00,
2013-07-22 02:56:00,68.0,9.5,29.96,North,0,0.0,0.0,1,0.00,,,0.00,WUHU216HW,2013-07-22 06:56:00,
2013-07-22 03:01:00,68.0,9.5,29.96,North,0,0.0,0.0,1,0.00,,,0.00,WUHU216HW,2013-07-22 07:01:00,
2013-07-22 03:06:00,68.0,9.5,29.95,North,0,0.0,0.0,1,0.00,,,0.00,WUHU216HW,2013-07-22 07:06:00,
2013-07-22 03:11:00,68.0,9.5,29.95,North,0,0.0,0.0,1,0.00,,,0.00,WUHU216HW,2013-07-22 07:11:00,
2013-07-22 03:16:00,68.0,9.5,29.95,North,0,0.0,0.0,1,0.00,,,0.00,WUHU216HW,2013-07-22 07:16:00,
2013-07-22 03:21:00,68.0,9.5,29.95,North,0,0.0,0.0,1,0.00,,,0.00,WUHU216HW,2013-07-22 07:21:00,
2013-07-22 03:26:00,68.0,9.5,29.94,North,0,0.0,0.0,1,0.00,,,0.00,WUHU216HW,2013-07-22 07:26:00,
2013-07-22 03:31:00,68.0,9.5,29.94,North,0,0.0,0.0,1,0.00,,,0.00,WUHU216HW,2013-07-22 07:31:00,
2013-07-22 03:36:00,67.9,9.4,29.94,North,0,0.0,0.0,1,0.00,,,0.00,WUHU216HW,2013-07-22 07:36:00,
2013-07-22 03:41:00,67.9,9.4,29.94,North,0,0.0,0.0,1,0.00,,,0.00,WUHU216HW,2013-07-22 07:41:00,
2013-07-22 03:46:00,67.9,9.4,29.94,North,0,0.0,0.0,1,0.00,,,0.00,WUHU216HW,2013-07-22 07:46:00,
2013-07-22 03:51:00,67.9,9.4,29.94,North,0,0.0,0.0,1,0.00,,,0.00,WUHU216HW,2013-07-22 07:51:00,
2013-07-22 03:56:00,67.9,9.4,29.94,North,0,0.0,0.0,1,0.00,,,0.00,WUHU216HW,2013-07-22 07:56:00,
2013-07-22 04:01:00,68.0,9.5,29.94,North,0,0.0,0.0,1,0.00,,,0.00,WUHU216HW,2013-07-22 08:01:00,
2013-07-22 04:06:00,68.0,9.5,29.94,North,0,0.0,0.0,1,0.00,,,0.00,WUHU216HW,2013-07-22 08:06:00,
2013-07-22 04:11:00,68.0,9.5,29.94,North,0,0.0,0.0,1,0.00,,,0.00,WUHU216HW,2013-07-22 08:11:00,
2013-07-22 04:16:00,68.0,9.5,29.94,North,0,0.0,0.0,1,0.00,,,0.00,WUHU216HW,2013-07-22 08:16:00,
2013-07-22 04:21:00,68.0,9.5,29.94,North,0,0.0,0.0,1,0.00,,,0.00,WUHU216HW,2013-07-22 08:21:00,
2013-07-22 04:26:00,68.0,9.5,29.94,North,0,0.0,0.0,1,0.00,,,0.00,WUHU216HW,2013-07-22 08:26:00,
2013-07-22 04:31:00,67.9,9.4,29.94,North,0,0.0,0.0,1,0.00,,,0.00,WUHU216HW,2013-07-22 08:31:00,
2013-07-22 04:36:00,67.9,9.4,29.94,North,0,0.0,0.0,1,0.00,,,0.00,WUHU216HW,2013-07-22 08:36:00,
2013-07-22 04:41:00,67.9,9.4,29.94,North,0,0.0,0.0,1,0.00,,,0.00,WUHU216HW,2013-07-22 08:41:00,
2013-07-22 04:46:00,67.9,9.4,29.94,North,0,0.0,0.0,1,0.00,,,0.00,WUHU216HW,2013-07-22 08:46:00,
2013-07-22 04:51:00,67.9,9.4,29.94,North,0,0.0,0.0,1,0.00,,,0.00,WUHU216HW,2013-07-22 08:51:00,
2013-07-22 04:56:00,67.9,9.4,29.94,North,0,0.0,0.0,1,0.00,,,0.00,WUHU216HW,2013-07-22 08:56:00,
2013-07-22 05:01:00,67.9,9.4,29.95,North,0,0.0,0.0,1,0.00,,,0.00,WUHU216HW,2013-07-22 09:01:00,
2013-07-22 05:06:00,68.0,9.5,29.95,North,0,0.0,0.0,1,0.00,,,0.00,WUHU216HW,2013-07-22 09:06:00,
2013-07-22 05:11:00,68.0,9.5,29.95,North,0,0.0,0.0,1,0.00,,,0.00,WUHU216HW,2013-07-22 09:11:00,
2013-07-22 05:16:00,68.0,9.5,29.95,North,0,0.0,0.0,1,0.00,,,0.00,WUHU216HW,2013-07-22 09:16:00,
2013-07-22 05:21:00,68.0,9.5,29.95,North,0,0.0,0.0,1,0.00,,,0.00,WUHU216HW,2013-07-22 09:21:00,
2013-07-22 05:26:00,68.0,9.5,29.95,North,0,0.0,0.0,1,0.00,,,0.00,WUHU216HW,2013-07-22 09:26:00,
2013-07-22 05:31:00,68.0,9.5,29.95,North,0,0.0,0.0,1,0.00,,,0.00,WUHU216HW,2013-07-22 09:31:00,
2013-07-22 05:36:00,68.2,9.6,29.95,North,0,0.0,0.0,1,0.00,,,0.00,WUHU216HW,2013-07-22 09:36:00,
2013-07-22 05:41:00,68.2,9.6,29.95,North,0,0.0,0.0,1,0.00,,,0.00,WUHU216HW,2013-07-22 09:41:00,
2013-07-22 05:46:00,68.2,9.6,29.95,North,0,0.0,0.0,1,0.00,,,0.00,WUHU216HW,2013-07-22 09:46:00,
2013-07-22 05:51:00,68.2,9.6,29.96,North,0,0.0,0.0,1,0.00,,,0.00,WUHU216HW,2013-07-22 09:51:00,
2013-07-22 05:56:00,68.2,9.6,29.96,North,0,0.0,0.0,1,0.00,,,0.00,WUHU216HW,2013-07-22 09:56:00,
2013-07-22 06:01:00,68.4,9.8,29.96,North,0,0.0,0.0,1,0.00,,,0.00,WUHU216HW,2013-07-22 10:01:00,
2013-07-22 06:06:00,68.4,9.8,29.96,North,0,0.0,0.0,1,0.00,,,0.00,WUHU216HW,2013-07-22 10:06:00,
2013-07-22 06:11:00,68.4,9.8,29.96,North,0,0.0,0.0,1,0.00,,,0.00,WUHU216HW,2013-07-22 10:11:00,
2013-07-22 06:16:00,68.6,9.9,29.96,North,0,0.0,0.0,1,0.00,,,0.00,WUHU216HW,2013-07-22 10:16:00,
2013-07-22 06:21:00,68.6,9.9,29.96,North,0,0.0,0.0,1,0.00,,,0.00,WUHU216HW,2013-07-22 10:21:00,
2013-07-22 06:26:00,68.6,9.9,29.96,North,0,0.0,0.0,1,0.00,,,0.00,WUHU216HW,2013-07-22 10:26:00,
2013-07-22 06:31:00,68.6,9.9,29.96,North,0,0.0,0.0,1,0.00,,,0.00,WUHU216HW,2013-07-22 10:31:00,
2013-07-22 06:36:00,68.6,9.9,29.96,North,0,0.0,0.0,1,0.00,,,0.00,WUHU216HW,2013-07-22 10:36:00,
2013-07-22 06:41:00,68.8,10.1,29.97,North,0,0.0,0.0,1,0.00,,,0.00,WUHU216HW,2013-07-22 10:41:00,
2013-07-22 06:46:00,68.8,10.1,29.97,North,0,0.0,0.0,1,0.00,,,0.00,WUHU216HW,2013-07-22 10:46:00,
2013-07-22 06:51:00,68.8,10.1,29.96,North,0,0.0,0.0,1,0.00,,,0.00,WUHU216HW,2013-07-22 10:51:00,
2013-07-22 06:56:00,68.8,10.1,29.97,North,0,0.0,0.0,1,0.00,,,0.00,WUHU216HW,2013-07-22 10:56:00,
2013-07-22 07:01:00,68.8,10.1,29.97,North,0,0.0,0.0,1,0.00,,,0.00,WUHU216HW,2013-07-22 11:01:00,
2013-07-22 07:06:00,68.8,10.1,29.97,North,0,0.0,0.0,1,0.00,,,0.00,WUHU216HW,2013-07-22 11:06:00,
2013-07-22 07:11:00,68.6,9.9,29.97,North,0,0.0,0.0,1,0.00,,,0.00,WUHU216HW,2013-07-22 11:11:00,
2013-07-22 07:16:00,68.8,10.1,29.97,North,0,0.0,0.0,1,0.00,,,0.00,WUHU216HW,2013-07-22 11:16:00,
2013-07-22 07:21:00,68.8,10.1,29.97,North,0,0.0,0.0,1,0.00,,,0.00,WUHU216HW,2013-07-22 11:21:00,
2013-07-22 07:26:00,69.1,10.3,29.98,North,0,0.0,0.0,1,0.00,,,0.00,WUHU216HW,2013-07-22 11:26:00,
2013-07-22 07:31:00,69.1,10.3,29.98,North,0,0.0,0.0,1,0.00,,,0.00,WUHU216HW,2013-07-22 11:31:00,
2013-07-22 07:36:00,69.3,10.5,29.98,North,0,0.0,0.0,1,0.00,,,0.00,WUHU216HW,2013-07-22 11:36:00,
2013-07-22 07:41:00,69.5,10.5,29.98,North,0,0.0,0.0,1,0.00,,,0.00,WUHU216HW,2013-07-22 11:41:00,
2013-07-22 07:46:00,69.5,10.5,29.98,North,0,0.0,0.0,1,0.00,,,0.00,WUHU216HW,2013-07-22 11:46:00,
2013-07-22 07:51:00,69.5,10.5,29.98,North,0,0.0,0.0,1,0.00,,,0.00,WUHU216HW,2013-07-22 11:51:00,
2013-07-22 07:56:00,69.5,10.5,29.98,North,0,0.0,0.0,1,0.00,,,0.00,WUHU216HW,2013-07-22 11:56:00,
2013-07-22 08:01:00,69.7,10.7,29.98,North,0,0.0,0.0,1,0.00,,,0.00,WUHU216HW,2013-07-22 12:01:00,
2013-07-22 08:06:00,69.8,10.8,29.98,North,0,0.0,0.0,1,0.00,,,0.00,WUHU216HW,2013-07-22 12:06:00,
2013-07-22 08:11:00,70.2,11.1,29.99,North,0,0.0,0.0,1,0.00,,,0.00,WUHU216HW,2013-07-22 12:11:00,
2013-07-22 08:16:00,70.6,11.3,29.99,North,0,0.0,0.0,1,0.00,,,0.00,WUHU216HW,2013-07-22 12:16:00,
2013-07-22 08:21:00,70.6,11.3,29.98,North,0,0.0,0.0,1,0.00,,,0.00,WUHU216HW,2013-07-22 12:21:00,
2013-07-22 08:26:00,70.6,11.3,29.98,North,0,0.0,0.0,1,0.00,,,0.00,WUHU216HW,2013-07-22 12:26:00,
2013-07-22 08:31:00,70.7,11.5,29.98,North,0,0.0,0.0,1,0.00,,,0.00,WUHU216HW,2013-07-22 12:31:00,
2013-07-22 08:36:00,70.9,11.7,29.98,North,0,0.0,0.0,1,0.00,,,0.00,WUHU216HW,2013-07-22 12:36:00,
2013-07-22 08:41:00,71.1,11.8,29.98,North,0,0.0,0.0,1,0.00,,,0.00,WUHU216HW,2013-07-22 12:41:00,
2013-07-22 08:46:00,70.7,11.5,29.99,North,0,0.0,0.0,1,0.00,,,0.00,WUHU216HW,2013-07-22 12:46:00,
2013-07-22 08:51:00,70.9,11.7,29.99,North,0,0.0,0.0,1,0.00,,,0.00,WUHU216HW,2013-07-22 12:51:00,
2013-07-22 08:56:00,70.9,11.7,29.99,North,0,0.0,0.0,1,0.00,,,0.00,WUHU216HW,2013-07-22 12:56:00,
2013-07-22 09:01:00,71.1,11.8,29.99,North,0,0.0,0.0,1,0.00,,,0.00,WUHU216HW,2013-07-22 13:01:00,
2013-07-22 09:06:00,71.3,12.0,29.99,North,0,0.0,0.0,1,0.00,,,0.00,WUHU216HW,2013-07-22 13:06:00,
2013-07-22 09:11:00,71.5,12.1,29.99,North,0,0.0,0.0,1,0.00,,,0.00,WUHU216HW,2013-07-22 13:11:00,
2013-07-22 09:16:00,71.6,12.2,29.99,North,0,0.0,0.0,1,0.00,,,0.00,WUHU216HW,2013-07-22 13:16:00,
2013-07-22 09:21:00,71.6,12.2,29.99,North,0,0.0,0.0,1,0.00,,,0.00,WUHU216HW,2013-07-22 13:21:00,
2013-07-22 09:26:00,71.6,12.2,29.99,North,0,0.0,0.0,1,0.00,,,0.00,WUHU216HW,2013-07-22 13:26:00,
2013-07-22 09:31:00,71.8,12.4,29.99,North,0,0.0,0.0,1,0.00,,,0.00,WUHU216HW,2013-07-22 13:31:00,
2013-07-22 09:36:00,72.2,12.7,29.99,North,0,0.0,0.0,1,0.00,,,0.00,WUHU216HW,2013-07-22 13:36:00,
2013-07-22 09:41:00,72.2,12.7,29.99,North,0,0.0,0.0,1,0.00,,,0.00,WUHU216HW,2013-07-22 13:41:00,
2013-07-22 09:46:00,72.4,12.8,29.99,North,0,0.0,0.0,1,0.00,,,0.00,WUHU216HW,2013-07-22 13:46:00,
2013-07-22 09:51:00,72.4,12.8,29.99,North,0,0.0,0.0,1,0.00,,,0.00,WUHU216HW,2013-07-22 13:51:00,
2013-07-22 09:56:00,72.4,12.8,29.99,North,0,0.0,0.0,1,0.00,,,0.00,WUHU216HW,2013-07-22 13:56:00,
2013-07-22 10:01:00,72.4,12.8,29.99,North,0,0.0,0.0,1,0.00,,,0.00,WUHU216HW,2013-07-22 14:01:00,
2013-07-22 10:06:00,72.2,12.7,29.99,North,0,0.0,0.0,1,0.00,,,0.00,WUHU216HW,2013-07-22 14:06:00,
2013-07-22 10:11:00,72.2,12.7,29.99,North,0,0.0,0.0,1,0.00,,,0.00,WUHU216HW,2013-07-22 14:11:00,
2013-07-22 10:16:00,72.2,12.7,29.99,North,0,0.0,0.0,1,0.00,,,0.00,WUHU216HW,2013-07-22 14:16:00,
2013-07-22 10:21:00,72.2,12.7,29.99,North,0,0.0,0.0,1,0.00,,,0.00,WUHU216HW,2013-07-22 14:21:00,
2013-07-22 10:26:00,72.4,12.8,29.99,North,0,0.0,0.0,1,0.00,,,0.00,WUHU216HW,2013-07-22 14:26:00,
2013-07-22 10:31:00,72.2,12.7,29.99,North,0,0.0,0.0,1,0.00,,,0.00,WUHU216HW,2013-07-22 14:31:00,
2013-07-22 10:36:00,72.4,12.8,29.98,North,0,0.0,0.0,1,0.00,,,0.00,WUHU216HW,2013-07-22 14:36:00,
2013-07-22 10:41:00,72.5,13.0,29.98,North,0,0.0,0.0,1,0.00,,,0.00,WUHU216HW,2013-07-22 14:41:00,
2013-07-22 10:46:00,72.5,13.0,29.98,North,0,0.0,0.0,1,0.00,,,0.00,WUHU216HW,2013-07-22 14:46:00,
2013-07-22 10:51:00,72.7,13.2,29.98,North,0,0.0,0.0,1,0.00,,,0.00,WUHU216HW,2013-07-22 14:51:00,
2013-07-22 10:56:00,72.7,13.2,29.98,North,0,0.0,0.0,1,0.00,,,0.00,WUHU216HW,2013-07-22 14:56:00,
2013-07-22 11:01:00,72.9,13.2,29.98,North,0,0.0,0.0,1,0.00,,,0.00,WUHU216HW,2013-07-22 15:01:00,
2013-07-22 11:06:00,73.4,13.7,29.98,North,0,0.0,0.0,1,0.00,,,0.00,WUHU216HW,2013-07-22 15:06:00,
2013-07-22 11:11:00,73.8,14.0,29.98,North,0,0.0,0.0,1,0.00,,,0.00,WUHU216HW,2013-07-22 15:11:00,
2013-07-22 11:16:00,74.0,14.0,29.98,North,0,0.0,0.0,1,0.00,,,0.00,WUHU216HW,2013-07-22 15:16:00,
2013-07-22 11:21:00,74.0,14.0,29.98,North,0,0.0,0.0,1,0.00,,,0.00,WUHU216HW,2013-07-22 15:21:00,
2013-07-22 11:26:00,74.0,14.0,29.98,North,0,0.0,0.0,1,0.00,,,0.00,WUHU216HW,2013-07-22 15:26:00,
2013-07-22 11:31:00,74.3,14.3,29.99,North,0,0.0,0.0,1,0.00,,,0.00,WUHU216HW,2013-07-22 15:31:00,
2013-07-22 11:36:00,73.8,14.0,29.99,North,0,0.0,0.0,1,0.00,,,0.00,WUHU216HW,2013-07-22 15:36:00,
2013-07-22 11:41:00,73.6,13.8,29.99,North,0,0.0,0.0,1,0.00,,,0.00,WUHU216HW,2013-07-22 15:41:00,
2013-07-22 11:46:00,74.0,14.0,29.99,North,0,0.0,0.0,1,0.00,,,0.00,WUHU216HW,2013-07-22 15:46:00,
2013-07-22 11:51:00,74.3,14.3,29.99,North,0,0.0,0.0,1,0.00,,,0.00,WUHU216HW,2013-07-22 15:51:00,
2013-07-22 11:56:00,74.5,14.4,29.99,North,0,0.0,0.0,1,0.00,,,0.00,WUHU216HW,2013-07-22 15:56:00,
2013-07-22 12:01:00,75.2,14.9,29.99,North,0,0.0,0.0,1,0.00,,,0.00,WUHU216HW,2013-07-22 16:01:00,
2013-07-22 12:06:00,76.0,15.5,29.99,North,0,0.0,0.0,1,0.00,,,0.00,WUHU216HW,2013-07-22 16:06:00,
2013-07-22 12:11:00,76.7,16.1,29.98,North,0,0.0,0.0,1,0.00,,,0.00,WUHU216HW,2013-07-22 16:11:00,
2013-07-22 12:16:00,77.9,17.0,29.98,North,0,0.0,0.0,1,0.00,,,0.00,WUHU216HW,2013-07-22 16:16:00,
2013-07-22 12:21:00,77.4,16.7,29.99,North,0,0.0,0.0,1,0.00,,,0.00,WUHU216HW,2013-07-22 16:21:00,
2013-07-22 12:26:00,77.4,16.7,29.99,North,0,0.0,0.0,1,0.00,,,0.00,WUHU216HW,2013-07-22 16:26:00,
2013-07-22 12:31:00,78.8,17.6,29.98,North,0,0.0,0.0,1,0.00,,,0.00,WUHU216HW,2013-07-22 16:31:00,
2013-07-22 12:36:00,79.9,18.6,29.98,North,0,0.0,0.0,1,0.00,,,0.00,WUHU216HW,2013-07-22 16:36:00,
2013-07-22 12:41:00,79.9,18.6,29.98,North,0,0.0,0.0,1,0.00,,,0.00,WUHU216HW,2013-07-22 16:41:00,
2013-07-22 12:46:00,80.1,18.6,29.98,North,0,0.0,0.0,1,0.00,,,0.00,WUHU216HW,2013-07-22 16:46:00,
2013-07-22 12:51:00,80.6,19.1,29.98,North,0,0.0,0.0,1,0.00,,,0.00,WUHU216HW,2013-07-22 16:51:00,
2013-07-22 12:56:00,81.0,19.4,29.98,North,0,0.0,0.0,1,0.00,,,0.00,WUHU216HW,2013-07-22 16:56:00,
2013-07-22 13:01:00,81.2,19.5,29.98,North,0,0.0,0.0,1,0.00,,,0.00,WUHU216HW,2013-07-22 17:01:00,
2013-07-22 13:06:00,81.4,19.6,29.97,North,0,0.0,0.0,1,0.00,,,0.00,WUHU216HW,2013-07-22 17:06:00,
2013-07-22 13:11:00,81.5,19.8,29.97,North,0,0.0,0.0,1,0.00,,,0.00,WUHU216HW,2013-07-22 17:11:00,
2013-07-22 13:16:00,81.7,20.0,29.97,North,0,0.0,0.0,1,0.00,,,0.00,WUHU216HW,2013-07-22 17:16:00,
2013-07-22 13:21:00,82.1,20.3,29.97,North,0,0.0,0.0,1,0.00,,,0.00,WUHU216HW,2013-07-22 17:21:00,
2013-07-22 13:26:00,82.3,20.3,29.97,North,0,0.0,0.0,1,0.00,,,0.00,WUHU216HW,2013-07-22 17:26:00,
2013-07-22 13:31:00,82.4,20.5,29.96,North,0,0.0,0.0,1,0.00,,,0.00,WUHU216HW,2013-07-22 17:31:00,
2013-07-22 13:36:00,82.8,20.8,29.96,North,0,0.0,0.0,1,0.00,,,0.00,WUHU216HW,2013-07-22 17:36:00,
2013-07-22 13:41:00,83.2,21.1,29.96,North,0,0.0,0.0,1,0.00,,,0.00,WUHU216HW,2013-07-22 17:41:00,
2013-07-22 13:46:00,83.2,21.1,29.96,North,0,0.0,0.0,1,0.00,,,0.00,WUHU216HW,2013-07-22 17:46:00,
2013-07-22 13:51:00,83.0,20.9,29.96,North,0,0.0,0.0,1,0.00,,,0.00,WUHU216HW,2013-07-22 17:51:00,
2013-07-22 13:56:00,82.8,20.8,29.95,North,0,0.0,0.0,1,0.00,,,0.00,WUHU216HW,2013-07-22 17:56:00,
2013-07-22 14:01:00,82.8,20.8,29.95,North,0,0.0,0.0,1,0.00,,,0.00,WUHU216HW,2013-07-22 18:01:00,
2013-07-22 14:07:00,83.3,21.2,29.95,North,0,0.0,0.0,1,0.00,,,0.00,WUHU216HW,2013-07-22 18:07:00,
2013-07-22 14:12:00,83.9,21.5,29.95,North,0,0.0,0.0,1,0.00,,,0.00,WUHU216HW,2013-07-22 18:12:00,
2013-07-22 14:17:00,84.1,21.7,29.95,North,0,0.0,0.0,1,0.00,,,0.00,WUHU216HW,2013-07-22 18:17:00,
2013-07-22 14:22:00,84.6,22.1,29.94,North,0,0.0,0.0,1,0.00,,,0.00,WUHU216HW,2013-07-22 18:22:00,
2013-07-22 14:27:00,84.6,22.1,29.94,North,0,0.0,0.0,1,0.00,,,0.00,WUHU216HW,2013-07-22 18:27:00,
2013-07-22 14:32:00,85.0,22.3,29.94,North,0,0.0,0.0,1,0.00,,,0.00,WUHU216HW,2013-07-22 18:32:00,
2013-07-22 14:38:00,85.3,27.8,29.94,North,0,0.0,0.0,13,0.00,,,0.00,WUHU216HW,2013-07-22 18:38:00,
2013-07-22 14:43:00,85.5,22.8,29.94,North,0,0.0,0.0,7,0.00,,,0.00,WUHU216HW,2013-07-22 18:43:00,
2013-07-22 14:48:00,85.7,23.0,29.94,North,0,0.0,0.0,8,0.00,,,0.00,WUHU216HW,2013-07-22 18:48:00,
2013-07-22 14:53:00,85.7,23.0,29.93,North,0,0.0,0.0,6,0.00,,,0.00,WUHU216HW,2013-07-22 18:53:00,
2013-07-22 14:58:00,85.9,23.0,29.93,North,0,0.0,0.0,8,0.00,,,0.00,WUHU216HW,2013-07-22 18:58:00,
2013-07-22 15:03:00,85.7,24.7,29.93,North,0,0.0,0.0,11,0.00,,,0.00,WUHU216HW,2013-07-22 19:03:00,
2013-07-22 15:08:00,85.9,36.0,29.93,North,0,0.0,0.0,17,0.00,,,0.00,WUHU216HW,2013-07-22 19:08:00,
2013-07-22 15:13:00,86.0,23.2,29.92,North,0,0.0,0.0,8,0.00,,,0.00,WUHU216HW,2013-07-22 19:13:00,
2013-07-22 15:19:00,86.2,23.4,29.92,North,0,0.0,0.0,6,0.00,,,0.00,WUHU216HW,2013-07-22 19:19:00,
2013-07-22 15:24:00,86.2,28.5,29.92,North,0,0.0,0.0,13,0.00,,,0.00,WUHU216HW,2013-07-22 19:24:00,
2013-07-22 15:29:00,86.6,25.4,29.92,North,0,0.0,0.0,11,0.00,,,0.00,WUHU216HW,2013-07-22 19:29:00,
2013-07-22 15:34:00,86.4,28.6,29.92,North,0,0.0,0.0,13,0.00,,,0.00,WUHU216HW,2013-07-22 19:34:00,
2013-07-22 15:40:00,86.6,25.4,29.91,North,0,0.0,0.0,11,0.00,,,0.00,WUHU216HW,2013-07-22 19:40:00,
2013-07-22 15:45:00,87.1,29.3,29.91,North,0,0.0,0.0,13,0.00,,,0.00,WUHU216HW,2013-07-22 19:45:00,
2013-07-22 15:50:00,87.3,34.6,29.91,North,0,0.0,0.0,16,0.00,,,0.00,WUHU216HW,2013-07-22 19:50:00,
2013-07-22 15:55:00,87.3,29.4,29.91,North,0,0.0,0.0,13,0.00,,,0.00,WUHU216HW,2013-07-22 19:55:00,
2013-07-22 16:00:00,87.3,36.3,29.91,North,0,0.0,0.0,17,0.00,,,0.00,WUHU216HW,2013-07-22 20:00:00,
2013-07-22 16:06:00,87.5,34.8,29.91,North,0,0.0,0.0,16,0.00,,,0.00,WUHU216HW,2013-07-22 20:06:00,
2013-07-22 16:11:00,87.5,33.0,29.91,North,0,0.0,0.0,15,0.00,,,0.00,WUHU216HW,2013-07-22 20:11:00,
2013-07-22 16:16:00,87.3,39.7,29.91,North,0,0.0,0.0,19,0.00,,,0.00,WUHU216HW,2013-07-22 20:16:00,
2013-07-22 16:17:00,87.3,42.5,29.91,North,0,0.0,0.0,21,0.00,,,0.00,WUHU216HW,2013-07-22 20:17:00,
2013-07-22 16:22:00,86.6,37.4,29.91,North,0,0.0,0.0,18,0.00,,,0.00,WUHU216HW,2013-07-22 20:22:00,
2013-07-22 16:27:00,86.4,37.3,29.90,North,0,0.0,0.0,18,0.00,,,0.00,WUHU216HW,2013-07-22 20:27:00,
2013-07-22 16:32:00,86.2,43.8,29.90,North,0,0.0,0.0,23,0.00,,,0.00,WUHU216HW,2013-07-22 20:32:00,
2013-07-22 16:37:00,86.2,28.5,29.90,North,0,0.0,0.0,13,0.00,,,0.00,WUHU216HW,2013-07-22 20:37:00,
2013-07-22 16:42:00,86.2,26.8,29.90,North,0,0.0,0.0,12,0.00,,,0.00,WUHU216HW,2013-07-22 20:42:00,
2013-07-22 16:43:00,86.2,33.7,29.90,North,0,0.0,0.0,16,0.00,,,0.00,WUHU216HW,2013-07-22 20:43:00,
2013-07-22 16:48:00,86.0,28.4,29.89,North,0,0.0,0.0,13,0.00,,,0.00,WUHU216HW,2013-07-22 20:48:00,
2013-07-22 16:53:00,86.0,31.8,29.89,North,0,0.0,0.0,15,0.00,,,0.00,WUHU216HW,2013-07-22 20:53:00,
2013-07-22 16:58:00,86.0,24.9,29.89,North,0,0.0,0.0,11,0.00,,,0.00,WUHU216HW,2013-07-22 20:58:00,
2013-07-22 17:03:00,86.0,23.2,29.89,North,0,0.0,0.0,10,0.00,,,0.00,WUHU216HW,2013-07-22 21:03:00,
2013-07-22 17:08:00,86.0,26.6,29.88,North,0,0.0,0.0,12,0.00,,,0.00,WUHU216HW,2013-07-22 21:08:00,
2013-07-22 17:13:00,86.0,26.6,29.88,North,0,0.0,0.0,12,0.00,,,0.00,WUHU216HW,2013-07-22 21:13:00,
2013-07-22 17:18:00,86.0,31.8,29.88,North,0,0.0,0.0,15,0.00,,,0.00,WUHU216HW,2013-07-22 21:18:00,
2013-07-22 17:23:00,86.0,26.6,29.88,North,0,0.0,0.0,12,0.00,,,0.00,WUHU216HW,2013-07-22 21:23:00,
2013-07-22 17:28:00,86.0,28.4,29.88,North,0,0.0,0.0,13,0.00,,,0.00,WUHU216HW,2013-07-22 21:28:00,
2013-07-22 17:33:00,86.0,33.5,29.88,North,0,0.0,0.0,16,0.00,,,0.00,WUHU216HW,2013-07-22 21:33:00,
2013-07-22 17:38:00,85.9,26.5,29.88,North,0,0.0,0.0,12,0.00,,,0.00,WUHU216HW,2013-07-22 21:38:00,
2013-07-22 17:43:00,85.5,31.3,29.88,North,0,0.0,0.0,15,0.00,,,0.00,WUHU216HW,2013-07-22 21:43:00,
2013-07-22 17:48:00,85.3,27.8,29.88,North,0,0.0,0.0,13,0.00,,,0.00,WUHU216HW,2013-07-22 21:48:00,
2013-07-22 17:53:00,85.3,26.1,29.88,North,0,0.0,0.0,12,0.00,,,0.00,WUHU216HW,2013-07-22 21:53:00,
2013-07-22 17:58:00,85.0,25.7,29.88,North,0,0.0,0.0,12,0.00,,,0.00,WUHU216HW,2013-07-22 21:58:00,
2013-07-22 18:03:00,85.0,27.5,29.87,North,0,0.0,0.0,13,0.00,,,0.00,WUHU216HW,2013-07-22 22:03:00,
2013-07-22 18:08:00,84.6,32.3,29.87,North,0,0.0,0.0,16,0.00,,,0.00,WUHU216HW,2013-07-22 22:08:00,
2013-07-22 18:13:00,84.6,27.2,29.87,North,0,0.0,0.0,13,0.00,,,0.00,WUHU216HW,2013-07-22 22:13:00,
2013-07-22 18:18:00,84.4,27.1,29.87,North,0,0.0,0.0,13,0.00,,,0.00,WUHU216HW,2013-07-22 22:18:00,
2013-07-22 18:23:00,84.1,28.5,29.87,North,0,0.0,0.0,14,0.00,,,0.00,WUHU216HW,2013-07-22 22:23:00,
2013-07-22 18:28:00,83.9,24.9,29.87,North,0,0.0,0.0,12,0.00,,,0.00,WUHU216HW,2013-07-22 22:28:00,
2013-07-22 18:33:00,83.7,21.4,29.87,North,0,0.0,0.0,8,0.00,,,0.00,WUHU216HW,2013-07-22 22:33:00,
2013-07-22 18:38:00,83.5,21.2,29.88,North,0,0.0,0.0,7,0.00,,,0.00,WUHU216HW,2013-07-22 22:38:00,
2013-07-22 18:43:00,83.5,21.2,29.88,North,0,0.0,0.0,6,0.00,,,0.00,WUHU216HW,2013-07-22 22:43:00,
2013-07-22 18:48:00,83.3,21.2,29.88,North,0,0.0,0.0,5,0.00,,,0.00,WUHU216HW,2013-07-22 22:48:00,
2013-07-22 18:53:00,83.2,21.1,29.88,North,0,0.0,0.0,3,0.00,,,0.00,WUHU216HW,2013-07-22 22:53:00,
2013-07-22 18:58:00,83.2,21.1,29.88,North,0,0.0,0.0,1,0.00,,,0.00,WUHU216HW,2013-07-22 22:58:00,
2013-07-22 19:03:00,82.8,20.8,29.88,North,0,0.0,0.0,1,0.00,,,0.00,WUHU216HW,2013-07-22 23:03:00,
2013-07-22 19:08:00,82.6,20.6,29.88,North,0,0.0,0.0,2,0.00,,,0.00,WUHU216HW,2013-07-22 23:08:00,
2013-07-22 19:13:00,82.3,20.3,29.88,North,0,0.0,0.0,2,0.00,,,0.00,WUHU216HW,2013-07-22 23:13:00,
2013-07-22 19:18:00,82.1,20.3,29.88,North,0,0.0,0.0,1,0.00,,,0.00,WUHU216HW,2013-07-22 23:18:00,
2013-07-22 19:23:00,81.9,20.1,29.88,North,0,0.0,0.0,1,0.00,,,0.00,WUHU216HW,2013-07-22 23:23:00,
2013-07-22 19:28:00,81.7,20.0,29.88,North,0,0.0,0.0,1,0.00,,,0.00,WUHU216HW,2013-07-22 23:28:00,
2013-07-22 19:33:00,81.5,19.8,29.88,North,0,0.0,0.0,1,0.00,,,0.00,WUHU216HW,2013-07-22 23:33:00,
2013-07-22 19:38:00,81.4,19.6,29.88,North,0,0.0,0.0,1,0.00,,,0.00,WUHU216HW,2013-07-22 23:38:00,
2013-07-22 19:43:00,81.0,19.4,29.88,North,0,0.0,0.0,1,0.00,,,0.00,WUHU216HW,2013-07-22 23:43:00,
2013-07-22 19:48:00,81.0,19.4,29.88,North,0,0.0,0.0,1,0.00,,,0.00,WUHU216HW,2013-07-22 23:48:00,
2013-07-22 19:53:00,80.8,19.3,29.88,North,0,0.0,0.0,1,0.00,,,0.00,WUHU216HW,2013-07-22 23:53:00,
2013-07-22 19:58:00,80.6,19.1,29.88,North,0,0.0,0.0,1,0.00,,,0.00,WUHU216HW,2013-07-22 23:58:00,
2013-07-22 20:03:00,80.5,18.9,29.88,North,0,0.0,0.0,1,0.00,,,0.00,WUHU216HW,2013-07-23 00:03:00,
2013-07-22 20:08:00,80.3,18.8,29.87,North,0,0.0,0.0,1,0.00,,,0.00,WUHU216HW,2013-07-23 00:08:00,
2013-07-22 20:13:00,79.9,18.6,29.88,North,0,0.0,0.0,1,0.00,,,0.00,WUHU216HW,2013-07-23 00:13:00,
2013-07-22 20:18:00,79.9,18.6,29.87,North,0,0.0,0.0,1,0.00,,,0.00,WUHU216HW,2013-07-23 00:18:00,
2013-07-22 20:23:00,79.7,18.4,29.87,North,0,0.0,0.0,1,0.00,,,0.00,WUHU216HW,2013-07-23 00:23:00,
2013-07-22 20:28:00,79.4,18.1,29.87,North,0,0.0,0.0,1,0.00,,,0.00,WUHU216HW,2013-07-23 00:28:00,
2013-07-22 20:33:00,79.2,17.9,29.87,North,0,0.0,0.0,1,0.00,,,0.00,WUHU216HW,2013-07-23 00:33:00,
2013-07-22 20:38:00,79.2,17.9,29.87,North,0,0.0,0.0,1,0.00,,,0.00,WUHU216HW,2013-07-23 00:38:00,
2013-07-22 20:43:00,79.2,17.9,29.87,North,0,0.0,0.0,1,0.00,,,0.00,WUHU216HW,2013-07-23 00:43:00,
2013-07-22 20:48:00,79.0,17.8,29.87,North,0,0.0,0.0,1,0.00,,,0.00,WUHU216HW,2013-07-23 00:48:00,
2013-07-22 20:53:00,78.8,17.6,29.88,North,0,0.0,0.0,1,0.00,,,0.00,WUHU216HW,2013-07-23 00:53:00,
2013-07-22 20:58:00,78.8,17.6,29.88,North,0,0.0,0.0,1,0.00,,,0.00,WUHU216HW,2013-07-23 00:58:00,
2013-07-22 21:03:00,78.7,17.6,29.88,North,0,0.0,0.0,1,0.00,,,0.00,WUHU216HW,2013-07-23 01:03:00,
2013-07-22 21:08:00,78.5,17.4,29.88,North,0,0.0,0.0,1,0.00,,,0.00,WUHU216HW,2013-07-23 01:08:00,
2013-07-22 21:13:00,78.1,17.1,29.88,North,0,0.0,0.0,1,0.00,,,0.00,WUHU216HW,2013-07-23 01:13:00,
2013-07-22 21:18:00,78.1,17.1,29.88,North,0,0.0,0.0,1,0.00,,,0.00,WUHU216HW,2013-07-23 01:18:00,
2013-07-22 21:23:00,77.9,17.0,29.88,North,0,0.0,0.0,1,0.00,,,0.00,WUHU216HW,2013-07-23 01:23:00,
2013-07-22 21:28:00,77.8,16.9,29.88,North,0,0.0,0.0,1,0.00,,,0.00,WUHU216HW,2013-07-23 01:28:00,
2013-07-22 21:33:00,77.8,16.9,29.88,North,0,0.0,0.0,1,0.00,,,0.00,WUHU216HW,2013-07-23 01:33:00,
2013-07-22 21:38:00,77.8,16.9,29.88,North,0,0.0,0.0,1,0.00,,,0.00,WUHU216HW,2013-07-23 01:38:00,
2013-07-22 21:43:00,77.6,16.7,29.88,North,0,0.0,0.0,1,0.00,,,0.00,WUHU216HW,2013-07-23 01:43:00,
2013-07-22 21:48:00,77.4,16.7,29.88,North,0,0.0,0.0,1,0.00,,,0.00,WUHU216HW,2013-07-23 01:48:00,
2013-07-22 21:53:00,77.2,16.5,29.88,North,0,0.0,0.0,1,0.00,,,0.00,WUHU216HW,2013-07-23 01:53:00,
2013-07-22 21:58:00,77.0,16.4,29.88,North,0,0.0,0.0,1,0.00,,,0.00,WUHU216HW,2013-07-23 01:58:00,
2013-07-22 22:03:00,77.0,16.4,29.89,North,0,0.0,0.0,1,0.00,,,0.00,WUHU216HW,2013-07-23 02:03:00,
2013-07-22 22:08:00,76.9,16.2,29.89,North,0,0.0,0.0,1,0.00,,,0.00,WUHU216HW,2013-07-23 02:08:00,
2013-07-22 22:13:00,76.7,16.1,29.89,North,0,0.0,0.0,1,0.00,,,0.00,WUHU216HW,2013-07-23 02:13:00,
2013-07-22 22:18:00,76.5,15.9,29.89,North,0,0.0,0.0,1,0.00,,,0.00,WUHU216HW,2013-07-23 02:18:00,
2013-07-22 22:23:00,76.5,15.9,29.89,North,0,0.0,0.0,1,0.00,,,0.00,WUHU216HW,2013-07-23 02:23:00,
2013-07-22 22:28:00,76.3,15.9,29.89,North,0,0.0,0.0,1,0.00,,,0.00,WUHU216HW,2013-07-23 02:28:00,
2013-07-22 22:33:00,76.1,15.7,29.89,North,0,0.0,0.0,1,0.00,,,0.00,WUHU216HW,2013-07-23 02:33:00,
2013-07-22 22:38:00,76.0,15.5,29.89,North,0,0.0,0.0,1,0.00,,,0.00,WUHU216HW,2013-07-23 02:38:00,
2013-07-22 22:43:00,75.6,15.2,29.89,North,0,0.0,0.0,1,0.00,,,0.00,WUHU216HW,2013-07-23 02:43:00,
2013-07-22 22:48:00,75.6,15.2,29.89,North,0,0.0,0.0,1,0.00,,,0.00,WUHU216HW,2013-07-23 02:48:00,
2013-07-22 22:53:00,75.2,14.9,29.89,North,0,0.0,0.0,1,0.00,,,0.00,WUHU216HW,2013-07-23 02:53:00,
2013-07-22 22:58:00,75.4,15.1,29.89,North,0,0.0,0.0,1,0.00,,,0.00,WUHU216HW,2013-07-23 02:58:00,
2013-07-22 23:03:00,75.1,14.9,29.89,North,0,0.0,0.0,1,0.00,,,0.00,WUHU216HW,2013-07-23 03:03:00,
2013-07-22 23:08:00,74.9,14.7,29.89,North,0,0.0,0.0,1,0.00,,,0.00,WUHU216HW,2013-07-23 03:08:00,
2013-07-22 23:13:00,74.5,14.4,29.89,North,0,0.0,0.0,1,0.00,,,0.00,WUHU216HW,2013-07-23 03:13:00,
2013-07-22 23:18:00,74.3,14.3,29.89,North,0,0.0,0.0,1,0.00,,,0.00,WUHU216HW,2013-07-23 03:18:00,
2013-07-22 23:23:00,74.3,14.3,29.89,North,0,0.0,0.0,1,0.00,,,0.00,WUHU216HW,2013-07-23 03:23:00,
2013-07-22 23:28:00,74.0,14.0,29.89,North,0,0.0,0.0,1,0.00,,,0.00,WUHU216HW,2013-07-23 03:28:00,
2013-07-22 23:33:00,74.2,14.2,29.89,North,0,0.0,0.0,1,0.00,,,0.00,WUHU216HW,2013-07-23 03:33:00,
2013-07-22 23:38:00,73.8,14.0,29.89,North,0,0.0,0.0,1,0.00,,,0.00,WUHU216HW,2013-07-23 03:38:00,
2013-07-22 23:43:00,73.8,14.0,29.89,North,0,0.0,0.0,1,0.00,,,0.00,WUHU216HW,2013-07-23 03:43:00,
2013-07-22 23:48:00,73.8,14.0,29.89,North,0,0.0,0.0,1,0.00,,,0.00,WUHU216HW,2013-07-23 03:48:00,
2013-07-22 23:53:00,73.6,13.8,29.89,North,0,0.0,0.0,1,0.00,,,0.00,WUHU216HW,2013-07-23 03:53:00,
2013-07-22 23:58:00,73.4,13.7,29.88,North,0,0.0,0.0,1,0.00,,,0.00,WUHU216HW,2013-07-23 03:58:00,